Location: Chevoux
(46.3801°N, 4.9476°E)
Time: 04:34:31
(UTC+00:00)

STRAND 1 - Visible Passes

Search period start: 15 June 2021 00:00
Search period end: 25 June 2021 00:00
Orbit: 769 x 780 km, 98.4° (Epoch: 14 June)

Date Brightness Start Highest point End Pass type
(mag) Time Alt. Az. Time Alt. Az. Time Alt. Az.
16 Jun ? 20:54:41 10° NNW 20:57:13 14° NW 20:59:46 10° W visible
17 Jun ? 20:19:27 10° N 20:23:36 25° WNW 20:27:43 10° WSW visible
19 Jun ? 20:51:30 10° NNW 20:54:14 15° NW 20:56:59 10° W visible
20 Jun ? 20:16:22 10° N 20:20:36 26° WNW 20:24:49 10° WSW visible
22 Jun ? 20:48:21 10° NNW 20:51:16 15° WNW 20:54:11 10° W visible
23 Jun ? 20:13:18 10° N 20:17:36 27° WNW 20:21:53 10° WSW visible
